カタログに戻る

STARLINK-35141

運用中通信VLEO
NORAD 65644·PAYLOAD·🇺🇸 United States

打ち上げ Sep 18, 2025 から Cape Canaveral Space Force Station

Loading…

次のパス (今後24時間)

TLE

最新Source: CelesTrak SupGP

元期: Sep 15, 2026, 03:23 UTC

1 65644C 25210Y   26258.14145833  .00051142  00000+0  16449-2 0  2583
2 65644  53.1561 146.3522 0001303  81.5816  55.8692 15.31669577    13

AllMySatでSTARLINK-35141をリアルタイム追跡

Download on the App Store